Time,TemperatureF,DewpointF,PressureIn,WindDirection,WindDirectionDegrees,WindSpeedMPH,WindSpeedGustMPH,Humidity,HourlyPrecipIn,Conditions,Clouds,dailyrainin,SoftwareType,DateUTC
2013-05-30 00:01:00,56.7,49.2,29.98,NNW,342,0.0,0.0,76,0.00,,,0.00,VWS V14.01,2013-05-30 04:01:00,
2013-05-30 00:02:00,56.7,49.2,29.99,NNW,342,0.0,0.0,76,0.00,,,0.00,VWS V14.01,2013-05-30 04:02:00,
2013-05-30 00:07:00,56.7,49.2,29.98,NNW,341,0.0,0.0,76,0.00,,,0.00,VWS V14.01,2013-05-30 04:07:00,
2013-05-30 00:12:00,56.8,49.3,29.98,NNW,341,0.0,0.0,76,0.00,,,0.00,VWS V14.01,2013-05-30 04:12:00,
2013-05-30 00:18:00,56.9,49.4,29.98,NNW,342,0.0,0.0,76,0.00,,,0.00,VWS V14.01,2013-05-30 04:18:00,
2013-05-30 00:23:00,57.0,49.5,29.98,NNW,341,0.0,0.0,76,0.00,,,0.00,VWS V14.01,2013-05-30 04:23:00,
2013-05-30 00:28:00,57.0,49.5,29.98,NNW,341,0.0,0.0,76,0.00,,,0.00,VWS V14.01,2013-05-30 04:28:00,
2013-05-30 00:33:00,57.1,49.6,29.99,NNW,341,0.0,0.0,76,0.00,,,0.00,VWS V14.01,2013-05-30 04:33:00,
2013-05-30 00:38:00,57.1,49.6,29.99,NNW,342,0.0,0.0,76,0.00,,,0.00,VWS V14.01,2013-05-30 04:38:00,
2013-05-30 00:43:00,57.2,49.7,29.99,NNW,341,0.0,0.0,76,0.00,,OVC003,0.00,VWS V14.01,2013-05-30 04:43:00,
2013-05-30 00:48:00,57.2,49.7,29.99,NNW,341,0.0,0.0,76,0.00,,OVC003,0.00,VWS V14.01,2013-05-30 04:48:00,
2013-05-30 00:53:00,57.3,49.8,29.99,NNW,335,0.0,0.0,76,0.00,,OVC003,0.00,VWS V14.01,2013-05-30 04:53:00,
2013-05-30 00:58:00,57.3,49.8,29.99,NNW,336,0.0,0.0,76,0.00,,,0.00,VWS V14.01,2013-05-30 04:58:00,
2013-05-30 01:03:00,57.4,49.9,29.99,NNW,336,0.0,0.0,76,0.00,,,0.00,VWS V14.01,2013-05-30 05:03:00,
2013-05-30 01:08:00,57.5,50.0,29.99,NNW,336,0.0,0.0,76,0.00,,,0.00,VWS V14.01,2013-05-30 05:08:00,
2013-05-30 01:13:00,57.5,50.0,29.99,NNW,335,0.0,0.0,76,0.00,,,0.00,VWS V14.01,2013-05-30 05:13:00,
2013-05-30 01:18:00,57.5,50.0,29.99,NNW,335,0.0,0.0,76,0.00,,,0.00,VWS V14.01,2013-05-30 05:18:00,
2013-05-30 01:23:00,57.6,50.1,29.99,NNW,336,0.0,0.0,76,0.00,,,0.00,VWS V14.01,2013-05-30 05:23:00,
2013-05-30 01:28:00,57.6,50.1,29.99,NNW,336,0.0,0.0,76,0.00,,,0.00,VWS V14.01,2013-05-30 05:28:00,
2013-05-30 01:33:00,57.7,50.2,29.99,NNW,335,0.0,0.0,76,0.00,,,0.00,VWS V14.01,2013-05-30 05:33:00,
2013-05-30 01:38:00,57.7,50.2,29.99,NNW,336,0.0,0.0,76,0.00,,,0.00,VWS V14.01,2013-05-30 05:38:00,
2013-05-30 01:43:00,57.7,50.2,29.99,NNW,335,0.0,0.0,76,0.00,,,0.00,VWS V14.01,2013-05-30 05:43:00,
2013-05-30 01:48:00,57.8,50.3,29.99,NNW,335,0.0,0.0,76,0.00,,,0.00,VWS V14.01,2013-05-30 05:48:00,
2013-05-30 01:53:00,57.8,50.3,29.99,NNW,336,0.0,0.0,76,0.00,,,0.00,VWS V14.01,2013-05-30 05:53:00,
2013-05-30 01:58:00,57.9,50.4,29.99,NNW,336,0.0,0.0,76,0.00,,,0.00,VWS V14.01,2013-05-30 05:58:00,
2013-05-30 02:03:00,57.9,50.4,29.99,NNW,337,0.0,0.0,76,0.00,,,0.00,VWS V14.01,2013-05-30 06:03:00,
2013-05-30 02:08:00,57.9,50.4,29.99,NNW,337,0.0,0.0,76,0.00,,,0.00,VWS V14.01,2013-05-30 06:08:00,
2013-05-30 02:13:00,58.0,50.5,29.99,NNW,337,0.0,0.0,76,0.00,,,0.00,VWS V14.01,2013-05-30 06:13:00,
2013-05-30 02:18:00,57.9,50.4,29.98,NNW,337,0.0,0.0,76,0.00,,,0.00,VWS V14.01,2013-05-30 06:18:00,
2013-05-30 02:23:00,58.0,50.5,29.98,NNW,338,0.0,0.0,76,0.00,,,0.00,VWS V14.01,2013-05-30 06:23:00,
2013-05-30 02:28:00,58.0,50.5,29.99,NNW,337,0.0,0.0,76,0.00,,,0.00,VWS V14.01,2013-05-30 06:28:00,
2013-05-30 02:33:00,58.1,50.6,29.98,NNW,337,0.0,0.0,76,0.00,,,0.00,VWS V14.01,2013-05-30 06:33:00,
2013-05-30 02:38:00,58.2,50.7,29.98,NNW,337,0.0,0.0,76,0.00,,,0.00,VWS V14.01,2013-05-30 06:38:00,
2013-05-30 02:43:00,58.3,50.8,29.98,NNW,337,0.0,0.0,76,0.00,,,0.00,VWS V14.01,2013-05-30 06:43:00,
2013-05-30 02:48:00,58.4,51.2,29.98,NNW,338,0.0,0.0,77,0.00,,,0.00,VWS V14.01,2013-05-30 06:48:00,
2013-05-30 02:53:00,58.5,51.3,29.98,NNW,337,0.0,0.0,77,0.00,,,0.00,VWS V14.01,2013-05-30 06:53:00,
2013-05-30 02:59:00,58.6,51.4,29.98,NNW,337,0.0,0.0,77,0.00,,,0.00,VWS V14.01,2013-05-30 06:59:00,
2013-05-30 03:04:00,58.6,51.4,29.98,NNW,338,0.0,0.0,77,0.00,,,0.00,VWS V14.01,2013-05-30 07:04:00,
2013-05-30 03:09:00,58.6,51.4,29.98,NNW,337,0.0,0.0,77,0.00,,,0.00,VWS V14.01,2013-05-30 07:09:00,
2013-05-30 03:14:00,58.7,51.5,29.98,West,278,1.0,1.0,77,0.00,,,0.00,VWS V14.01,2013-05-30 07:14:00,
2013-05-30 03:19:00,58.8,51.6,29.98,West,280,1.0,1.0,77,0.00,,,0.00,VWS V14.01,2013-05-30 07:19:00,
2013-05-30 03:24:00,58.9,51.7,29.98,West,278,0.0,0.0,77,0.00,,,0.00,VWS V14.01,2013-05-30 07:24:00,
2013-05-30 03:29:00,58.9,51.7,29.98,West,278,0.0,0.0,77,0.00,,,0.00,VWS V14.01,2013-05-30 07:29:00,
2013-05-30 03:34:00,59.0,51.8,29.97,West,267,0.0,0.0,77,0.00,,,0.00,VWS V14.01,2013-05-30 07:34:00,
2013-05-30 03:39:00,59.0,51.8,29.98,West,270,0.0,0.0,77,0.00,,,0.00,VWS V14.01,2013-05-30 07:39:00,
2013-05-30 03:44:00,59.0,51.8,29.98,WNW,288,1.0,1.0,77,0.00,,,0.00,VWS V14.01,2013-05-30 07:44:00,
2013-05-30 03:49:00,59.0,51.8,29.98,WNW,290,0.0,0.0,77,0.00,,,0.00,VWS V14.01,2013-05-30 07:49:00,
2013-05-30 03:54:00,59.0,51.8,29.98,WNW,293,0.0,0.0,77,0.00,,,0.00,VWS V14.01,2013-05-30 07:54:00,
2013-05-30 03:59:00,58.9,51.7,29.98,WNW,294,0.0,0.0,77,0.00,,,0.00,VWS V14.01,2013-05-30 07:59:00,
2013-05-30 04:04:00,58.8,51.6,29.98,West,278,0.0,0.0,77,0.00,,,0.00,VWS V14.01,2013-05-30 08:04:00,
2013-05-30 04:09:00,58.8,51.6,29.98,WSW,249,0.0,0.0,77,0.00,,,0.00,VWS V14.01,2013-05-30 08:09:00,
2013-05-30 04:14:00,58.7,51.5,29.98,SW,221,0.0,0.0,77,0.00,,,0.00,VWS V14.01,2013-05-30 08:14:00,
2013-05-30 04:19:00,58.6,51.4,29.98,SW,221,0.0,0.0,77,0.00,,,0.00,VWS V14.01,2013-05-30 08:19:00,
2013-05-30 04:24:00,58.5,51.3,29.98,SW,221,0.0,0.0,77,0.00,,,0.00,VWS V14.01,2013-05-30 08:24:00,
2013-05-30 04:29:00,58.4,51.2,29.98,SW,221,0.0,0.0,77,0.00,,,0.00,VWS V14.01,2013-05-30 08:29:00,
2013-05-30 04:34:00,58.2,51.0,29.98,SW,221,0.0,0.0,77,0.00,,,0.00,VWS V14.01,2013-05-30 08:34:00,
2013-05-30 04:39:00,58.2,51.0,29.99,SW,221,0.0,0.0,77,0.00,,,0.00,VWS V14.01,2013-05-30 08:39:00,
2013-05-30 04:44:00,58.1,50.9,29.99,SW,221,0.0,0.0,77,0.00,,,0.00,VWS V14.01,2013-05-30 08:44:00,
2013-05-30 04:49:00,58.0,50.8,29.99,SW,221,0.0,0.0,77,0.00,,,0.00,VWS V14.01,2013-05-30 08:49:00,
2013-05-30 04:54:00,58.0,50.8,29.99,SW,221,0.0,0.0,77,0.00,,,0.00,VWS V14.01,2013-05-30 08:54:00,
2013-05-30 04:59:00,57.9,50.7,29.99,SW,221,0.0,0.0,77,0.00,,,0.00,VWS V14.01,2013-05-30 08:59:00,
2013-05-30 05:04:00,57.8,50.7,29.99,SW,221,0.0,0.0,77,0.00,,,0.00,VWS V14.01,2013-05-30 09:04:00,
2013-05-30 05:09:00,57.6,50.5,29.99,SW,221,0.0,0.0,77,0.00,,,0.00,VWS V14.01,2013-05-30 09:09:00,
2013-05-30 05:14:00,57.5,50.4,29.99,SW,221,0.0,0.0,77,0.00,,,0.00,VWS V14.01,2013-05-30 09:14:00,
2013-05-30 05:19:00,57.4,50.3,29.99,SW,221,0.0,0.0,77,0.00,,,0.00,VWS V14.01,2013-05-30 09:19:00,
2013-05-30 05:24:00,57.4,50.3,29.99,SW,221,0.0,0.0,77,0.00,,,0.00,VWS V14.01,2013-05-30 09:24:00,
2013-05-30 05:29:00,57.2,50.1,29.99,SW,221,0.0,0.0,77,0.00,,,0.00,VWS V14.01,2013-05-30 09:29:00,
2013-05-30 05:34:00,57.2,50.1,29.99,SW,221,0.0,0.0,77,0.00,,,0.00,VWS V14.01,2013-05-30 09:34:00,
2013-05-30 05:39:00,57.3,50.2,29.99,SW,221,0.0,0.0,77,0.00,,,0.00,VWS V14.01,2013-05-30 09:39:00,
2013-05-30 05:44:00,57.3,50.2,29.99,SW,221,0.0,0.0,77,0.00,,,0.00,VWS V14.01,2013-05-30 09:44:00,
2013-05-30 05:49:00,57.3,50.2,29.99,SW,221,0.0,0.0,77,0.00,,,0.00,VWS V14.01,2013-05-30 09:49:00,
2013-05-30 05:54:00,57.4,50.3,29.99,SW,221,0.0,0.0,77,0.00,,,0.00,VWS V14.01,2013-05-30 09:54:00,
2013-05-30 05:59:00,57.4,50.3,30.00,SW,221,0.0,0.0,77,0.00,,,0.00,VWS V14.01,2013-05-30 09:59:00,
2013-05-30 06:04:00,57.8,51.0,30.00,SW,221,0.0,0.0,78,0.00,,,0.00,VWS V14.01,2013-05-30 10:04:00,
2013-05-30 06:09:00,58.2,51.4,30.00,SW,222,0.0,0.0,78,0.00,,,0.00,VWS V14.01,2013-05-30 10:09:00,
2013-05-30 06:14:00,58.6,51.8,30.00,SW,222,0.0,0.0,78,0.00,,,0.00,VWS V14.01,2013-05-30 10:14:00,
2013-05-30 06:19:00,58.8,52.3,30.01,SW,222,0.0,0.0,79,0.00,,,0.00,VWS V14.01,2013-05-30 10:19:00,
2013-05-30 06:24:00,59.2,52.7,30.01,SW,222,0.0,0.0,79,0.00,,,0.00,VWS V14.01,2013-05-30 10:24:00,
2013-05-30 06:29:00,59.6,53.1,30.01,SW,222,0.0,0.0,79,0.00,,,0.00,VWS V14.01,2013-05-30 10:29:00,
2013-05-30 06:34:00,60.5,54.3,30.01,West,259,0.0,0.0,80,0.00,,,0.00,VWS V14.01,2013-05-30 10:34:00,
2013-05-30 06:39:00,60.9,54.7,30.01,WNW,300,0.0,1.0,80,0.00,,BKN250,0.00,VWS V14.01,2013-05-30 10:39:00,
2013-05-30 06:44:00,61.4,55.2,30.01,WNW,300,0.0,1.0,80,0.00,,BKN250,0.00,VWS V14.01,2013-05-30 10:44:00,
2013-05-30 06:49:00,61.8,55.9,30.01,WNW,287,0.0,0.0,81,0.00,,BKN250,0.00,VWS V14.01,2013-05-30 10:49:00,
2013-05-30 06:54:00,62.3,56.4,30.01,West,262,1.0,2.0,81,0.00,,BKN250,0.00,VWS V14.01,2013-05-30 10:54:00,
2013-05-30 06:59:00,62.7,56.8,30.01,WSW,258,0.0,0.0,81,0.00,,BKN250,0.00,VWS V14.01,2013-05-30 10:59:00,
2013-05-30 07:04:00,63.0,57.1,30.01,WSW,255,0.0,0.0,81,0.00,,BKN250,0.00,VWS V14.01,2013-05-30 11:04:00,
2013-05-30 07:09:00,63.2,57.3,30.01,West,270,0.0,1.0,81,0.00,,BKN250,0.00,VWS V14.01,2013-05-30 11:09:00,
2013-05-30 07:14:00,63.6,57.7,30.01,WNW,291,0.0,0.0,81,0.00,,BKN250,0.00,VWS V14.01,2013-05-30 11:14:00,
2013-05-30 07:19:00,64.0,58.1,30.01,WNW,291,0.0,1.0,81,0.00,,BKN250,0.00,VWS V14.01,2013-05-30 11:19:00,
2013-05-30 07:24:00,64.5,58.5,30.01,SE,133,0.0,0.0,81,0.00,,BKN250,0.00,VWS V14.01,2013-05-30 11:24:00,
2013-05-30 07:29:00,65.0,59.0,30.01,West,278,0.0,1.0,81,0.00,,BKN250,0.00,VWS V14.01,2013-05-30 11:29:00,
2013-05-30 07:34:00,65.9,59.9,30.01,WNW,284,0.0,0.0,81,0.00,,BKN250,0.00,VWS V14.01,2013-05-30 11:34:00,
2013-05-30 07:39:00,66.3,60.0,30.01,SW,236,0.0,1.0,80,0.00,,BKN250,0.00,VWS V14.01,2013-05-30 11:39:00,
2013-05-30 07:44:00,66.9,60.2,30.01,WNW,288,0.0,1.0,79,0.00,,BKN250,0.00,VWS V14.01,2013-05-30 11:44:00,
2013-05-30 07:49:00,67.7,60.6,30.01,WSW,256,0.0,2.0,78,0.00,,BKN250,0.00,VWS V14.01,2013-05-30 11:49:00,
2013-05-30 07:54:00,68.2,60.3,30.01,NW,319,0.0,0.0,76,0.00,,BKN250,0.00,VWS V14.01,2013-05-30 11:54:00,
2013-05-30 07:59:00,69.0,63.6,30.01,NW,326,0.0,1.0,83,0.00,,BKN250,0.00,VWS V14.01,2013-05-30 11:59:00,
2013-05-30 08:04:00,69.3,64.9,30.01,SW,229,1.0,1.0,86,0.00,,BKN250,0.00,VWS V14.01,2013-05-30 12:04:00,
2013-05-30 08:09:00,69.5,65.5,30.02,West,276,3.0,3.0,87,0.00,,BKN250,0.00,VWS V14.01,2013-05-30 12:09:00,
2013-05-30 08:14:00,69.6,65.2,30.01,WNW,288,0.0,3.0,86,0.00,,BKN250,0.00,VWS V14.01,2013-05-30 12:14:00,
2013-05-30 08:19:00,70.1,65.7,30.01,West,278,2.0,3.0,86,0.00,,BKN250,0.00,VWS V14.01,2013-05-30 12:19:00,
2013-05-30 08:24:00,70.4,66.0,30.02,WNW,285,1.0,2.0,86,0.00,,BKN250,0.00,VWS V14.01,2013-05-30 12:24:00,
2013-05-30 08:29:00,70.7,66.3,30.02,West,264,2.0,4.0,86,0.00,,BKN250,0.00,VWS V14.01,2013-05-30 12:29:00,
2013-05-30 08:34:00,71.1,66.7,30.02,NW,326,0.0,2.0,86,0.00,,BKN250,0.00,VWS V14.01,2013-05-30 12:34:00,
2013-05-30 08:39:00,71.9,67.2,30.02,NW,321,1.0,1.0,85,0.00,,BKN250,0.00,VWS V14.01,2013-05-30 12:39:00,
2013-05-30 08:44:00,72.6,67.5,30.02,NW,305,1.0,4.0,84,0.00,,BKN250,0.00,VWS V14.01,2013-05-30 12:44:00,
2013-05-30 08:49:00,73.0,67.9,30.02,West,259,0.0,1.0,84,0.00,,BKN250,0.00,VWS V14.01,2013-05-30 12:49:00,
2013-05-30 08:54:00,73.5,68.4,30.02,West,262,1.0,1.0,84,0.00,,BKN250,0.00,VWS V14.01,2013-05-30 12:54:00,
2013-05-30 08:59:00,74.4,68.6,30.02,West,273,0.0,1.0,82,0.00,,BKN250,0.00,VWS V14.01,2013-05-30 12:59:00,
2013-05-30 09:04:00,74.8,68.6,30.02,SW,232,0.0,2.0,81,0.00,,BKN250,0.00,VWS V14.01,2013-05-30 13:04:00,
2013-05-30 09:09:00,75.1,68.5,30.02,WNW,301,1.0,1.0,80,0.00,,BKN250,0.00,VWS V14.01,2013-05-30 13:09:00,
2013-05-30 09:14:00,75.5,68.9,30.02,SE,143,1.0,2.0,80,0.00,,BKN250,0.00,VWS V14.01,2013-05-30 13:14:00,
2013-05-30 09:19:00,76.0,69.0,30.02,WSW,255,1.0,1.0,79,0.00,,BKN250,0.00,VWS V14.01,2013-05-30 13:19:00,
2013-05-30 09:24:00,76.4,69.0,30.02,West,260,1.0,4.0,78,0.00,,BKN250,0.00,VWS V14.01,2013-05-30 13:24:00,
2013-05-30 09:29:00,76.4,69.0,30.02,WSW,249,0.0,3.0,78,0.00,,BKN250,0.00,VWS V14.01,2013-05-30 13:29:00,
2013-05-30 09:34:00,76.7,69.7,30.02,West,267,0.0,1.0,79,0.00,,BKN250,0.00,VWS V14.01,2013-05-30 13:34:00,
2013-05-30 09:39:00,77.4,70.0,30.02,NW,319,1.0,2.0,78,0.00,,BKN250,0.00,VWS V14.01,2013-05-30 13:39:00,
2013-05-30 09:44:00,77.5,69.3,30.02,NNW,328,0.0,1.0,76,0.00,,BKN250,0.00,VWS V14.01,2013-05-30 13:44:00,
2013-05-30 09:49:00,78.2,69.2,30.02,West,267,3.0,3.0,74,0.00,,BKN250,0.00,VWS V14.01,2013-05-30 13:49:00,
2013-05-30 09:54:00,78.0,68.2,30.01,West,266,1.0,3.0,72,0.00,,BKN250,0.00,VWS V14.01,2013-05-30 13:54:00,
2013-05-30 09:59:00,78.1,68.8,30.01,NW,311,3.0,3.0,73,0.00,,BKN250,0.00,VWS V14.01,2013-05-30 13:59:00,
2013-05-30 10:04:00,78.7,68.9,30.01,NNW,340,1.0,1.0,72,0.00,,BKN250,0.00,VWS V14.01,2013-05-30 14:04:00,
2013-05-30 10:09:00,79.2,67.7,30.01,WNW,284,2.0,3.0,68,0.00,,BKN250,0.00,VWS V14.01,2013-05-30 14:09:00,
2013-05-30 10:14:00,79.6,67.2,30.01,West,277,1.0,7.0,66,0.00,,BKN250,0.00,VWS V14.01,2013-05-30 14:14:00,
2013-05-30 10:19:00,79.1,67.2,30.01,West,276,0.0,4.0,67,0.00,,BKN250,0.00,VWS V14.01,2013-05-30 14:19:00,
2013-05-30 10:24:00,79.6,66.8,30.01,SSE,163,1.0,4.0,65,0.00,,BKN250,0.00,VWS V14.01,2013-05-30 14:24:00,
2013-05-30 10:29:00,80.1,66.8,30.01,North,9,1.0,5.0,64,0.00,,BKN250,0.00,VWS V14.01,2013-05-30 14:29:00,
2013-05-30 10:34:00,80.4,67.1,30.01,WNW,295,1.0,1.0,64,0.00,,BKN250,0.00,VWS V14.01,2013-05-30 14:34:00,
2013-05-30 10:39:00,80.5,66.8,30.01,West,270,0.0,4.0,63,0.00,,BKN250,0.00,VWS V14.01,2013-05-30 14:39:00,
2013-05-30 10:44:00,80.7,66.9,30.02,WSW,239,1.0,2.0,63,0.00,,BKN250,0.00,VWS V14.01,2013-05-30 14:44:00,
2013-05-30 10:49:00,81.1,67.8,30.01,WNW,283,1.0,2.0,64,0.00,,BKN250,0.00,VWS V14.01,2013-05-30 14:49:00,
2013-05-30 10:54:00,80.9,67.1,30.02,WSW,249,1.0,3.0,63,0.00,,BKN250,0.00,VWS V14.01,2013-05-30 14:54:00,
2013-05-30 10:59:00,80.9,66.7,30.01,WNW,285,3.0,7.0,62,0.00,,BKN250,0.00,VWS V14.01,2013-05-30 14:59:00,
2013-05-30 11:04:00,81.0,66.3,30.01,WNW,302,0.0,6.0,61,0.00,,BKN250,0.00,VWS V14.01,2013-05-30 15:04:00,
2013-05-30 11:09:00,81.2,66.0,30.01,WSW,257,1.0,4.0,60,0.00,,BKN250,0.00,VWS V14.01,2013-05-30 15:09:00,
2013-05-30 11:14:00,81.7,66.0,30.01,West,274,0.0,3.0,59,0.00,,BKN250,0.00,VWS V14.01,2013-05-30 15:14:00,
2013-05-30 11:19:00,82.4,67.1,30.01,West,274,1.0,1.0,60,0.00,,BKN250,0.00,VWS V14.01,2013-05-30 15:19:00,
2013-05-30 11:24:00,82.8,67.0,30.01,West,277,3.0,3.0,59,0.00,,BKN250,0.00,VWS V14.01,2013-05-30 15:24:00,
2013-05-30 11:29:00,82.9,66.6,30.01,West,263,2.0,4.0,58,0.00,,BKN250,0.00,VWS V14.01,2013-05-30 15:29:00,
2013-05-30 11:34:00,83.0,67.2,30.01,NW,308,3.0,3.0,59,0.00,,BKN250,0.00,VWS V14.01,2013-05-30 15:34:00,
2013-05-30 11:39:00,83.5,67.7,30.01,West,276,4.0,4.0,59,0.00,,BKN250,0.00,VWS V14.01,2013-05-30 15:39:00,
2013-05-30 11:44:00,83.2,66.9,30.01,West,280,3.0,4.0,58,0.00,,BKN250,0.00,VWS V14.01,2013-05-30 15:44:00,
2013-05-30 11:49:00,83.0,67.7,30.01,NE,45,0.0,0.0,60,0.00,,BKN250,0.00,VWS V14.01,2013-05-30 15:49:00,
2013-05-30 11:54:00,83.5,67.2,30.01,NNW,332,1.0,2.0,58,0.00,,BKN250,0.00,VWS V14.01,2013-05-30 15:54:00,
2013-05-30 11:59:00,83.1,67.8,30.01,East,82,3.0,4.0,60,0.00,,BKN250,0.00,VWS V14.01,2013-05-30 15:59:00,
2013-05-30 12:04:00,83.7,67.9,30.01,WSW,258,2.0,2.0,59,0.00,,BKN250,0.00,VWS V14.01,2013-05-30 16:04:00,
2013-05-30 12:09:00,83.5,67.7,30.01,WSW,255,1.0,3.0,59,0.00,,BKN250,0.00,VWS V14.01,2013-05-30 16:09:00,
2013-05-30 12:14:00,83.7,67.9,30.01,NW,309,1.0,2.0,59,0.00,,BKN250,0.00,VWS V14.01,2013-05-30 16:14:00,
2013-05-30 12:19:00,83.4,66.6,30.01,West,262,2.0,4.0,57,0.00,,BKN250,0.00,VWS V14.01,2013-05-30 16:19:00,
2013-05-30 12:24:00,84.1,67.7,30.00,WSW,249,1.0,3.0,58,0.00,,BKN250,0.00,VWS V14.01,2013-05-30 16:24:00,
2013-05-30 12:29:00,84.3,66.4,30.00,NNW,338,1.0,3.0,55,0.00,,BKN250,0.00,VWS V14.01,2013-05-30 16:29:00,
2013-05-30 12:34:00,84.6,66.1,30.00,WNW,290,1.0,3.0,54,0.00,,BKN250,0.00,VWS V14.01,2013-05-30 16:34:00,
2013-05-30 12:39:00,84.7,65.7,30.00,NNW,345,2.0,8.0,53,0.00,,BKN250,0.00,VWS V14.01,2013-05-30 16:39:00,
2013-05-30 12:44:00,84.5,65.5,30.00,West,267,4.0,4.0,53,0.00,,BKN250,0.00,VWS V14.01,2013-05-30 16:44:00,
2013-05-30 12:49:00,84.6,67.2,30.00,SW,221,1.0,2.0,56,0.00,,BKN250,0.00,VWS V14.01,2013-05-30 16:49:00,
2013-05-30 12:54:00,84.7,66.2,29.99,East,96,2.0,6.0,54,0.00,,BKN250,0.00,VWS V14.01,2013-05-30 16:54:00,
2013-05-30 12:59:00,85.4,66.9,29.99,NNW,338,0.0,2.0,54,0.00,,BKN250,0.00,VWS V14.01,2013-05-30 16:59:00,
2013-05-30 13:04:00,85.4,66.3,29.99,WSW,256,3.0,4.0,53,0.00,,BKN250,0.00,VWS V14.01,2013-05-30 17:04:00,
2013-05-30 13:09:00,85.0,66.0,29.99,NW,305,0.0,4.0,53,0.00,,BKN250,0.00,VWS V14.01,2013-05-30 17:09:00,
2013-05-30 13:14:00,85.1,66.6,29.99,NW,312,1.0,3.0,54,0.00,,BKN250,0.00,VWS V14.01,2013-05-30 17:14:00,
2013-05-30 13:19:00,85.2,66.7,29.99,West,269,1.0,2.0,54,0.00,,BKN250,0.00,VWS V14.01,2013-05-30 17:19:00,
2013-05-30 13:24:00,85.6,67.1,29.99,NNW,338,1.0,5.0,54,0.00,,BKN250,0.00,VWS V14.01,2013-05-30 17:24:00,
2013-05-30 13:29:00,85.7,66.1,29.99,NNW,340,2.0,2.0,52,0.00,,BKN250,0.00,VWS V14.01,2013-05-30 17:29:00,
2013-05-30 13:34:00,85.5,65.3,29.99,NW,309,2.0,4.0,51,0.00,,BKN250,0.00,VWS V14.01,2013-05-30 17:34:00,
2013-05-30 13:39:00,84.9,65.9,29.99,West,277,1.0,2.0,53,0.00,,BKN250,0.00,VWS V14.01,2013-05-30 17:39:00,
2013-05-30 13:44:00,85.6,66.5,29.99,West,273,1.0,3.0,53,0.00,,BKN200,0.00,VWS V14.01,2013-05-30 17:44:00,
2013-05-30 13:49:00,85.6,65.4,29.98,SW,228,1.0,1.0,51,0.00,,BKN200,0.00,VWS V14.01,2013-05-30 17:49:00,
2013-05-30 13:54:00,85.9,65.1,29.98,West,277,3.0,3.0,50,0.00,,BKN200,0.00,VWS V14.01,2013-05-30 17:54:00,
2013-05-30 13:59:00,86.5,65.7,29.98,WNW,291,0.0,2.0,50,0.00,,BKN200,0.00,VWS V14.01,2013-05-30 17:59:00,
2013-05-30 14:04:00,86.9,65.5,29.98,NW,314,2.0,5.0,49,0.00,,BKN200,0.00,VWS V14.01,2013-05-30 18:04:00,
2013-05-30 14:09:00,86.3,64.9,29.98,NW,307,2.0,4.0,49,0.00,,BKN200,0.00,VWS V14.01,2013-05-30 18:09:00,
2013-05-30 14:14:00,86.2,65.4,29.98,WSW,249,1.0,2.0,50,0.00,,BKN200,0.00,VWS V14.01,2013-05-30 18:14:00,
2013-05-30 14:19:00,86.8,65.4,29.98,West,276,5.0,5.0,49,0.00,,BKN200,0.00,VWS V14.01,2013-05-30 18:19:00,
2013-05-30 14:24:00,86.3,64.3,29.98,WSW,257,3.0,6.0,48,0.00,,BKN200,0.00,VWS V14.01,2013-05-30 18:24:00,
2013-05-30 14:29:00,86.9,65.5,29.97,WSW,249,2.0,4.0,49,0.00,,BKN200,0.00,VWS V14.01,2013-05-30 18:29:00,
2013-05-30 14:34:00,86.9,65.5,29.98,North,356,0.0,4.0,49,0.00,,BKN200,0.00,VWS V14.01,2013-05-30 18:34:00,
2013-05-30 14:39:00,86.8,65.9,29.98,NW,309,0.0,1.0,50,0.00,,BKN200,0.00,VWS V14.01,2013-05-30 18:39:00,
2013-05-30 14:44:00,86.6,65.2,29.98,NNW,330,1.0,3.0,49,0.00,,BKN200,0.00,VWS V14.01,2013-05-30 18:44:00,
2013-05-30 14:49:00,86.4,65.6,29.98,West,275,2.0,5.0,50,0.00,,BKN200,0.00,VWS V14.01,2013-05-30 18:49:00,
2013-05-30 14:54:00,86.5,66.2,29.98,NNW,330,1.0,2.0,51,0.00,,BKN200,0.00,VWS V14.01,2013-05-30 18:54:00,
2013-05-30 14:59:00,86.9,65.5,29.97,WNW,283,3.0,4.0,49,0.00,,BKN200,0.00,VWS V14.01,2013-05-30 18:59:00,
2013-05-30 15:04:00,86.6,65.8,29.97,NW,319,0.0,3.0,50,0.00,,BKN200,0.00,VWS V14.01,2013-05-30 19:04:00,
2013-05-30 15:09:00,86.6,66.3,29.97,WNW,284,3.0,3.0,51,0.00,,BKN200,0.00,VWS V14.01,2013-05-30 19:09:00,
2013-05-30 15:14:00,87.1,65.6,29.97,West,277,3.0,4.0,49,0.00,,BKN200,0.00,VWS V14.01,2013-05-30 19:14:00,
2013-05-30 15:20:00,87.3,65.8,29.97,West,274,2.0,3.0,49,0.00,,BKN200,0.00,VWS V14.01,2013-05-30 19:20:00,
2013-05-30 15:25:00,87.5,65.4,29.97,SW,233,2.0,3.0,48,0.00,,BKN200,0.00,VWS V14.01,2013-05-30 19:25:00,
2013-05-30 15:30:00,87.6,65.5,29.97,WNW,298,0.0,2.0,48,0.00,,BKN200,0.00,VWS V14.01,2013-05-30 19:30:00,
2013-05-30 15:35:00,87.8,66.3,29.97,North,8,2.0,3.0,49,0.00,,BKN200,0.00,VWS V14.01,2013-05-30 19:35:00,
2013-05-30 15:40:00,87.7,65.0,29.97,NNW,329,1.0,2.0,47,0.00,,BKN200,0.00,VWS V14.01,2013-05-30 19:40:00,
2013-05-30 15:45:00,87.7,65.6,29.97,WNW,297,0.0,1.0,48,0.00,,BKN200,0.00,VWS V14.01,2013-05-30 19:45:00,
2013-05-30 15:50:00,87.8,64.5,29.97,SSW,212,0.0,2.0,46,0.00,,BKN250,0.00,VWS V14.01,2013-05-30 19:50:00,
2013-05-30 15:55:00,87.5,64.8,29.96,WNW,293,0.0,3.0,47,0.00,,BKN250,0.00,VWS V14.01,2013-05-30 19:55:00,
2013-05-30 16:00:00,87.2,64.5,29.96,WNW,295,0.0,2.0,47,0.00,,BKN250,0.00,VWS V14.01,2013-05-30 20:00:00,
2013-05-30 16:05:00,87.5,64.2,29.96,WNW,294,3.0,4.0,46,0.00,,BKN250,0.00,VWS V14.01,2013-05-30 20:05:00,
2013-05-30 16:10:00,87.6,63.7,29.95,NE,51,2.0,3.0,45,0.00,,BKN250,0.00,VWS V14.01,2013-05-30 20:10:00,
2013-05-30 16:15:00,87.9,63.3,29.96,WNW,288,1.0,4.0,44,0.00,,BKN250,0.00,VWS V14.01,2013-05-30 20:15:00,
2013-05-30 16:20:00,88.2,64.2,29.95,SW,225,0.0,1.0,45,0.00,,BKN250,0.00,VWS V14.01,2013-05-30 20:20:00,
2013-05-30 16:25:00,88.3,64.3,29.95,West,271,1.0,3.0,45,0.00,,BKN250,0.00,VWS V14.01,2013-05-30 20:25:00,
2013-05-30 16:30:00,88.3,63.7,29.95,WSW,255,1.0,2.0,44,0.00,,BKN250,0.00,VWS V14.01,2013-05-30 20:30:00,
2013-05-30 16:35:00,88.1,64.1,29.95,West,269,2.0,3.0,45,0.00,,BKN250,0.00,VWS V14.01,2013-05-30 20:35:00,
2013-05-30 16:40:00,87.9,64.6,29.95,West,264,1.0,6.0,46,0.00,,BKN250,0.00,VWS V14.01,2013-05-30 20:40:00,
2013-05-30 16:45:00,87.8,64.5,29.95,West,271,2.0,3.0,46,0.00,,BKN250,0.00,VWS V14.01,2013-05-30 20:45:00,
2013-05-30 16:50:00,87.6,63.7,29.95,NW,325,2.0,2.0,45,0.00,,SCT200,0.00,VWS V14.01,2013-05-30 20:50:00,
2013-05-30 16:56:00,87.6,64.3,29.95,WNW,288,6.0,6.0,46,0.00,,SCT200,0.00,VWS V14.01,2013-05-30 20:56:00,
2013-05-30 17:01:00,87.7,65.0,29.95,NW,323,0.0,1.0,47,0.00,,SCT200,0.00,VWS V14.01,2013-05-30 21:01:00,
2013-05-30 17:06:00,87.5,64.2,29.95,WSW,245,1.0,1.0,46,0.00,,SCT200,0.00,VWS V14.01,2013-05-30 21:06:00,
2013-05-30 17:11:00,87.5,64.8,29.95,NE,36,0.0,1.0,47,0.00,,SCT200,0.00,VWS V14.01,2013-05-30 21:11:00,
2013-05-30 17:16:00,87.4,64.1,29.95,West,259,0.0,1.0,46,0.00,,SCT200,0.00,VWS V14.01,2013-05-30 21:16:00,
2013-05-30 17:21:00,87.4,64.1,29.95,West,262,0.0,1.0,46,0.00,,SCT200,0.00,VWS V14.01,2013-05-30 21:21:00,
2013-05-30 17:26:00,87.5,63.6,29.95,WNW,288,1.0,4.0,45,0.00,,SCT200,0.00,VWS V14.01,2013-05-30 21:26:00,
2013-05-30 17:31:00,87.5,64.2,29.95,WNW,288,1.0,3.0,46,0.00,,SCT200,0.00,VWS V14.01,2013-05-30 21:31:00,
2013-05-30 17:36:00,87.5,64.2,29.95,SW,225,2.0,3.0,46,0.00,,SCT200,0.00,VWS V14.01,2013-05-30 21:36:00,
2013-05-30 17:41:00,87.6,64.3,29.95,WNW,290,1.0,4.0,46,0.00,,SCT200,0.00,VWS V14.01,2013-05-30 21:41:00,
2013-05-30 17:46:00,87.6,64.3,29.95,WNW,290,3.0,3.0,46,0.00,,BKN200,0.00,VWS V14.01,2013-05-30 21:46:00,
2013-05-30 17:51:00,87.6,64.3,29.95,WNW,300,0.0,1.0,46,0.00,,BKN200,0.00,VWS V14.01,2013-05-30 21:51:00,
2013-05-30 17:56:00,87.5,64.8,29.95,West,273,0.0,2.0,47,0.00,,BKN200,0.00,VWS V14.01,2013-05-30 21:56:00,
2013-05-30 18:01:00,87.5,64.8,29.95,NW,309,1.0,1.0,47,0.00,,BKN200,0.00,VWS V14.01,2013-05-30 22:01:00,
2013-05-30 18:06:00,87.4,64.1,29.95,West,281,3.0,3.0,46,0.00,,BKN200,0.00,VWS V14.01,2013-05-30 22:06:00,
2013-05-30 18:11:00,87.3,64.6,29.95,West,271,0.0,1.0,47,0.00,,BKN200,0.00,VWS V14.01,2013-05-30 22:11:00,
2013-05-30 18:16:00,87.3,64.6,29.95,ENE,76,0.0,2.0,47,0.00,,BKN200,0.00,VWS V14.01,2013-05-30 22:16:00,
2013-05-30 18:21:00,87.2,63.9,29.95,West,281,1.0,1.0,46,0.00,,BKN200,0.00,VWS V14.01,2013-05-30 22:21:00,
2013-05-30 18:26:00,87.3,64.0,29.95,WNW,297,0.0,0.0,46,0.00,,BKN200,0.00,VWS V14.01,2013-05-30 22:26:00,
2013-05-30 18:31:00,87.2,64.5,29.95,WNW,288,0.0,0.0,47,0.00,,BKN200,0.00,VWS V14.01,2013-05-30 22:31:00,
2013-05-30 18:36:00,87.1,64.4,29.95,West,277,1.0,2.0,47,0.00,,BKN200,0.00,VWS V14.01,2013-05-30 22:36:00,
2013-05-30 18:41:00,86.9,64.9,29.95,West,280,1.0,2.0,48,0.00,,BKN200,0.00,VWS V14.01,2013-05-30 22:41:00,
2013-05-30 18:46:00,86.8,64.8,29.95,WNW,283,1.0,1.0,48,0.00,,BKN200,0.00,VWS V14.01,2013-05-30 22:46:00,
2013-05-30 18:51:00,86.7,65.3,29.96,WNW,283,0.0,0.0,49,0.00,,BKN200,0.00,VWS V14.01,2013-05-30 22:51:00,
2013-05-30 18:56:00,86.8,64.8,29.96,WNW,283,0.0,1.0,48,0.00,,BKN200,0.00,VWS V14.01,2013-05-30 22:56:00,
2013-05-30 19:01:00,86.8,65.9,29.96,WSW,257,0.0,0.0,50,0.00,,BKN200,0.00,VWS V14.01,2013-05-30 23:01:00,
2013-05-30 19:06:00,86.4,65.6,29.96,WSW,257,0.0,0.0,50,0.00,,BKN200,0.00,VWS V14.01,2013-05-30 23:06:00,
2013-05-30 19:11:00,85.9,65.7,29.96,WSW,257,0.0,1.0,51,0.00,,BKN200,0.00,VWS V14.01,2013-05-30 23:11:00,
2013-05-30 19:16:00,85.4,65.8,29.96,WSW,257,0.0,0.0,52,0.00,,BKN200,0.00,VWS V14.01,2013-05-30 23:16:00,
2013-05-30 19:21:00,84.9,66.4,29.96,WSW,257,0.0,0.0,54,0.00,,BKN200,0.00,VWS V14.01,2013-05-30 23:21:00,
2013-05-30 19:26:00,84.4,66.5,29.96,WSW,257,0.0,0.0,55,0.00,,BKN200,0.00,VWS V14.01,2013-05-30 23:26:00,
2013-05-30 19:31:00,83.9,66.0,29.96,WSW,257,0.0,0.0,55,0.00,,BKN200,0.00,VWS V14.01,2013-05-30 23:31:00,
2013-05-30 19:36:00,83.6,65.7,29.96,WSW,252,0.0,0.0,55,0.00,,BKN200,0.00,VWS V14.01,2013-05-30 23:36:00,
2013-05-30 19:41:00,83.4,66.1,29.96,WSW,252,0.0,0.0,56,0.00,,BKN200,0.00,VWS V14.01,2013-05-30 23:41:00,
2013-05-30 19:46:00,83.1,66.3,29.96,WSW,252,0.0,0.0,57,0.00,,BKN200,0.00,VWS V14.01,2013-05-30 23:46:00,
2013-05-30 19:51:00,82.6,66.3,29.96,WSW,251,0.0,0.0,58,0.00,,BKN250,0.00,VWS V14.01,2013-05-30 23:51:00,
2013-05-30 19:56:00,82.1,66.4,29.96,WSW,252,0.0,0.0,59,0.00,,BKN250,0.00,VWS V14.01,2013-05-30 23:56:00,
2013-05-30 20:01:00,81.5,66.3,29.96,WSW,252,0.0,0.0,60,0.00,,BKN250,0.00,VWS V14.01,2013-05-31 00:01:00,
2013-05-30 20:06:00,81.1,65.9,29.96,WSW,252,0.0,0.0,60,0.00,,BKN250,0.00,VWS V14.01,2013-05-31 00:06:00,
2013-05-30 20:11:00,81.0,66.8,29.96,WSW,253,0.0,0.0,62,0.00,,BKN250,0.00,VWS V14.01,2013-05-31 00:11:00,
2013-05-30 20:17:00,80.8,67.0,29.96,WSW,253,0.0,0.0,63,0.00,,BKN250,0.00,VWS V14.01,2013-05-31 00:17:00,
2013-05-30 20:22:00,80.4,67.1,29.96,WSW,253,0.0,0.0,64,0.00,,BKN250,0.00,VWS V14.01,2013-05-31 00:22:00,
2013-05-30 20:27:00,79.9,67.1,29.96,WSW,253,0.0,0.0,65,0.00,,BKN250,0.00,VWS V14.01,2013-05-31 00:27:00,
2013-05-30 20:32:00,79.3,67.0,29.97,WSW,253,1.0,1.0,66,0.00,,BKN250,0.00,VWS V14.01,2013-05-31 00:32:00,
2013-05-30 20:37:00,76.8,64.2,29.97,WSW,256,0.0,1.0,65,0.00,,BKN250,0.00,VWS V14.01,2013-05-31 00:37:00,
2013-05-30 20:42:00,75.0,63.7,29.97,WSW,256,0.0,0.0,68,0.00,,BKN250,0.00,VWS V14.01,2013-05-31 00:42:00,
2013-05-30 20:47:00,74.0,63.6,29.97,WSW,256,0.0,0.0,70,0.00,,BKN250,0.00,VWS V14.01,2013-05-31 00:47:00,
2013-05-30 20:52:00,73.0,63.0,29.98,WSW,256,0.0,0.0,71,0.00,,BKN250,0.00,VWS V14.01,2013-05-31 00:52:00,
2013-05-30 20:57:00,72.3,62.8,29.98,WSW,256,0.0,0.0,72,0.00,,BKN250,0.00,VWS V14.01,2013-05-31 00:57:00,
2013-05-30 21:02:00,71.9,62.8,29.98,WSW,256,0.0,0.0,73,0.00,,BKN250,0.00,VWS V14.01,2013-05-31 01:02:00,
2013-05-30 21:07:00,71.8,62.7,29.98,WSW,256,0.0,0.0,73,0.00,,BKN250,0.00,VWS V14.01,2013-05-31 01:07:00,
2013-05-30 21:12:00,71.6,62.9,29.98,WSW,256,0.0,0.0,74,0.00,,BKN250,0.00,VWS V14.01,2013-05-31 01:12:00,
2013-05-30 21:17:00,71.5,63.5,29.98,WSW,256,0.0,0.0,76,0.00,,BKN250,0.00,VWS V14.01,2013-05-31 01:17:00,
2013-05-30 21:22:00,71.4,63.5,29.98,WSW,256,0.0,0.0,76,0.00,,BKN250,0.00,VWS V14.01,2013-05-31 01:22:00,
2013-05-30 21:27:00,71.2,63.6,29.98,WSW,256,0.0,0.0,77,0.00,,BKN250,0.00,VWS V14.01,2013-05-31 01:27:00,
2013-05-30 21:32:00,70.7,62.4,29.98,WSW,256,0.0,0.0,75,0.00,,BKN250,0.00,VWS V14.01,2013-05-31 01:32:00,
2013-05-30 21:37:00,70.3,62.0,29.99,WSW,256,0.0,0.0,75,0.00,,BKN250,0.00,VWS V14.01,2013-05-31 01:37:00,
2013-05-30 21:42:00,69.7,61.8,29.99,WSW,256,0.0,0.0,76,0.00,,BKN250,0.00,VWS V14.01,2013-05-31 01:42:00,
2013-05-30 21:48:00,69.4,61.9,29.99,WSW,256,0.0,0.0,77,0.00,,SCT250,0.00,VWS V14.01,2013-05-31 01:48:00,
2013-05-30 21:53:00,69.4,62.2,29.99,WSW,256,0.0,0.0,78,0.00,,SCT250,0.00,VWS V14.01,2013-05-31 01:53:00,
2013-05-30 21:58:00,69.4,62.2,29.99,WSW,256,0.0,0.0,78,0.00,,SCT250,0.00,VWS V14.01,2013-05-31 01:58:00,
2013-05-30 22:03:00,69.6,63.2,29.99,WSW,256,0.0,0.0,80,0.00,,SCT250,0.00,VWS V14.01,2013-05-31 02:03:00,
2013-05-30 22:08:00,69.7,63.3,29.99,WSW,256,0.0,0.0,80,0.00,,SCT250,0.00,VWS V14.01,2013-05-31 02:08:00,
2013-05-30 22:13:00,69.9,63.1,29.99,WSW,256,0.0,0.0,79,0.00,,SCT250,0.00,VWS V14.01,2013-05-31 02:13:00,
2013-05-30 22:18:00,69.9,63.5,29.99,WSW,256,0.0,0.0,80,0.00,,SCT250,0.00,VWS V14.01,2013-05-31 02:18:00,
2013-05-30 22:23:00,69.9,63.5,29.99,WSW,256,0.0,0.0,80,0.00,,SCT250,0.00,VWS V14.01,2013-05-31 02:23:00,
2013-05-30 22:28:00,69.5,63.4,29.99,WSW,256,0.0,0.0,81,0.00,,SCT250,0.00,VWS V14.01,2013-05-31 02:28:00,
2013-05-30 22:33:00,69.0,62.9,29.99,SW,224,0.0,0.0,81,0.00,,SCT250,0.00,VWS V14.01,2013-05-31 02:33:00,
2013-05-30 22:38:00,68.7,62.3,29.99,SW,224,0.0,0.0,80,0.00,,SCT250,0.00,VWS V14.01,2013-05-31 02:38:00,
2013-05-30 22:43:00,68.6,62.5,29.99,SW,224,0.0,0.0,81,0.00,,SCT250,0.00,VWS V14.01,2013-05-31 02:43:00,
2013-05-30 22:48:00,69.0,63.6,29.99,SW,224,0.0,0.0,83,0.00,,SCT250,0.00,VWS V14.01,2013-05-31 02:48:00,
2013-05-30 22:53:00,69.3,63.6,29.99,SW,224,0.0,0.0,82,0.00,,SCT250,0.00,VWS V14.01,2013-05-31 02:53:00,
2013-05-30 22:58:00,69.1,63.4,29.99,SW,224,0.0,0.0,82,0.00,,SCT250,0.00,VWS V14.01,2013-05-31 02:58:00,
2013-05-30 23:03:00,68.6,62.5,29.99,SW,224,0.0,0.0,81,0.00,,SCT250,0.00,VWS V14.01,2013-05-31 03:03:00,
2013-05-30 23:08:00,68.0,62.3,29.99,SW,224,0.0,0.0,82,0.00,,SCT250,0.00,VWS V14.01,2013-05-31 03:08:00,
2013-05-30 23:13:00,67.6,61.9,29.99,SW,224,0.0,0.0,82,0.00,,SCT250,0.00,VWS V14.01,2013-05-31 03:13:00,
2013-05-30 23:18:00,67.5,61.8,29.99,SW,224,0.0,0.0,82,0.00,,SCT250,0.00,VWS V14.01,2013-05-31 03:18:00,
2013-05-30 23:23:00,67.5,62.2,29.99,SW,224,0.0,0.0,83,0.00,,SCT250,0.00,VWS V14.01,2013-05-31 03:23:00,
2013-05-30 23:28:00,67.6,62.6,29.99,SW,224,0.0,0.0,84,0.00,,SCT250,0.00,VWS V14.01,2013-05-31 03:28:00,
2013-05-30 23:33:00,67.6,62.6,29.99,SW,224,0.0,0.0,84,0.00,,SCT250,0.00,VWS V14.01,2013-05-31 03:33:00,
2013-05-30 23:38:00,67.5,62.5,29.99,SW,224,0.0,0.0,84,0.00,,SCT250,0.00,VWS V14.01,2013-05-31 03:38:00,
2013-05-30 23:43:00,67.5,62.5,29.99,SW,224,0.0,0.0,84,0.00,,FEW250,0.00,VWS V14.01,2013-05-31 03:43:00,
2013-05-30 23:48:00,67.5,62.5,29.99,SW,224,0.0,0.0,84,0.00,,FEW250,0.00,VWS V14.01,2013-05-31 03:48:00,
2013-05-30 23:53:00,67.5,62.5,29.99,SW,224,0.0,0.0,84,0.00,,FEW250,0.00,VWS V14.01,2013-05-31 03:53:00,
2013-05-30 23:58:00,67.3,62.3,29.99,SW,224,0.0,0.0,84,0.00,,FEW250,0.00,VWS V14.01,2013-05-31 03:58:00,